Location: Morningside
(52.5833°N, 113.6333°W)
Time: 16:40:59
(UTC+00:00)

BlueWalker 3 - Visible Passes

Search period start: 05 June 2023 00:00
Search period end: 15 June 2023 00:00
Orbit: 494 x 513 km, 53.2° (Epoch: 05 June)

Date Brightness Start Highest point End Pass type
(mag) Time Alt. Az. Time Alt. Az. Time Alt. Az.
05 Jun 2.1 04:56:39 10° W 05:00:30 80° N 05:04:23 10° E visible
05 Jun 1.8 06:35:13 10° WNW 06:39:05 74° SSW 06:42:49 11° ESE visible
05 Jun 3.0 08:14:02 10° W 08:17:14 25° SW 08:17:27 24° SSW visible
06 Jun 2.1 04:36:14 10° W 04:40:06 80° N 04:43:59 10° E visible
06 Jun 1.8 06:14:49 10° WNW 06:18:41 73° SSW 06:22:18 12° ESE visible
06 Jun 3.1 07:53:38 10° W 07:56:48 24° SW 07:56:57 24° SW visible
07 Jun 1.9 05:54:24 10° WNW 05:58:15 72° SSW 06:01:58 11° ESE visible
07 Jun 3.1 07:33:14 10° W 07:36:22 24° SW 07:36:36 23° SSW visible
08 Jun 1.9 05:33:58 10° WNW 05:37:49 71° SSW 05:41:41 10° ESE visible
08 Jun 3.2 07:12:49 10° W 07:15:56 23° SW 07:16:22 23° SSW visible
09 Jun 1.9 05:13:32 10° WNW 05:17:23 70° SSW 05:21:14 10° ESE visible
09 Jun 3.3 06:52:23 10° W 06:55:28 23° SW 06:56:12 21° SSW visible
10 Jun 2.0 04:53:04 10° WNW 04:56:55 69° SSW 05:00:46 10° ESE visible
10 Jun 3.4 06:31:57 10° W 06:35:00 22° SW 06:36:05 20° SSW visible
11 Jun 3.4 06:11:31 10° W 06:14:32 22° SW 06:16:01 18° S visible
12 Jun 3.5 05:51:04 10° W 05:54:03 21° SW 05:56:00 15° S visible
13 Jun 3.6 05:30:36 10° W 05:33:33 21° SW 05:36:01 12° S visible
14 Jun 3.7 05:10:08 10° W 05:13:03 21° SW 05:15:58 10° S visible
